Location: Newark
(44.1667°N, 8.2500°E)
Time: 16:58:02
(UTC+00:00)

Explorer 11/Cluster Stage 4 - Pass Details

Date: 19 December 2019
Orbit: 467 x 1259 km, 28.8° (Epoch: 25 January)

Event Time Altitude Azimuth Distance (km) Brightness Sun altitude
Rises 05:27:10 0° 219° (SW) 4,114 10.1 -15.5°
Reaches altitude 10° 05:31:01 10° 202° (SSW) 3,206 9.7 -14.8°
Maximum altitude 05:36:16 19° 162° (SSE) 2,620 9.7 -14.0°
Drops below altitude 10° 05:41:29 10° 122° (ESE) 3,186 11.1 -13.1°
Sets 05:45:17 0° 106° (ESE) 4,080 12.3 -12.4°
